TimeCST,TemperatureF,Dew PointF,Humidity,Sea Level PressureIn,VisibilityMPH,Wind Direction,Wind SpeedMPH,Gust SpeedMPH,PrecipitationIn,Events,Conditions,WindDirDegrees,DateUTC
12:53 AM,46.0,21.0,37,29.98,10.0,South,4.6,-,N/A,,Clear,180,2012-12-23 06:53:00
1:53 AM,45.0,21.9,40,29.97,10.0,South,4.6,-,N/A,,Clear,180,2012-12-23 07:53:00
2:53 AM,46.0,21.9,39,29.96,10.0,South,5.8,-,N/A,,Clear,170,2012-12-23 08:53:00
3:53 AM,46.0,24.1,42,29.95,10.0,South,4.6,-,N/A,,Clear,170,2012-12-23 09:53:00
4:53 AM,46.0,25.0,44,29.94,10.0,SSE,4.6,-,N/A,,Clear,160,2012-12-23 10:53:00
5:53 AM,45.0,27.0,49,29.95,10.0,South,5.8,-,N/A,,Clear,170,2012-12-23 11:53:00
6:53 AM,44.1,30.0,58,29.95,10.0,SSE,5.8,-,N/A,,Clear,160,2012-12-23 12:53:00
7:53 AM,45.0,32.0,60,29.95,10.0,SSE,4.6,-,N/A,,Clear,160,2012-12-23 13:53:00
8:53 AM,48.0,34.0,58,29.95,10.0,South,4.6,-,N/A,,Clear,180,2012-12-23 14:53:00
9:53 AM,53.1,37.9,57,29.94,10.0,SSW,5.8,-,N/A,,Clear,200,2012-12-23 15:53:00
10:53 AM,57.9,42.1,56,29.93,10.0,SW,8.1,-,N/A,,Clear,220,2012-12-23 16:53:00
11:53 AM,62.1,44.1,52,29.88,10.0,SSW,11.5,-,N/A,,Clear,200,2012-12-23 17:53:00
12:53 PM,63.0,44.1,50,29.83,10.0,SW,5.8,-,N/A,,Partly Cloudy,230,2012-12-23 18:53:00
1:53 PM,63.0,44.1,50,29.81,10.0,WSW,4.6,-,N/A,,Partly Cloudy,250,2012-12-23 19:53:00
2:53 PM,62.1,43.0,50,29.81,10.0,SSW,9.2,-,N/A,,Clear,200,2012-12-23 20:53:00
3:53 PM,61.0,44.1,54,29.80,10.0,South,5.8,-,N/A,,Clear,180,2012-12-23 21:53:00
4:53 PM,55.9,44.1,64,29.81,9.0,South,3.5,-,N/A,,Clear,170,2012-12-23 22:53:00
5:53 PM,54.0,44.1,69,29.82,10.0,Calm,Calm,-,N/A,,Clear,0,2012-12-23 23:53:00
6:53 PM,53.1,44.1,71,29.83,10.0,Calm,Calm,-,N/A,,Mostly Cloudy,0,2012-12-24 00:53:00
7:53 PM,52.0,45.0,77,29.82,9.0,SE,4.6,-,N/A,,Mostly Cloudy,130,2012-12-24 01:53:00
8:53 PM,51.1,46.0,83,29.81,9.0,SE,4.6,-,N/A,,Mostly Cloudy,140,2012-12-24 02:53:00
9:53 PM,51.1,46.9,86,29.81,9.0,South,4.6,-,N/A,,Overcast,170,2012-12-24 03:53:00
10:53 PM,52.0,46.9,83,29.81,8.0,Calm,Calm,-,N/A,,Overcast,0,2012-12-24 04:53:00
11:53 PM,51.1,46.9,86,29.79,8.0,Calm,Calm,-,N/A,,Overcast,0,2012-12-24 05:53:00